Meteo Giornale » Osservazioni meteo Gran Bretagna » Cranfield

ore: 17:50 - Osservazioni Meteo Cranfield
Lat. 52° 4' N Lon. 0° 37' W Alt. 111 metri s.l.m.

molto_nuvoloso Europe/London

14 °C

Molto Nuvoloso

Temp. 24 Ore

14 °C

16 °C

Sud-Ovest

22.2 Km/h

Dew point 13 °C

Umidità 93 %

Visibilità  10 Km

Il sole sorge alle ore 06:53

Il sole tramonta alle ore 16:39

Data e Ora Cielo e Fenomeni T °C DP °C Um. % Pres. hPa Vis. km Vento km/h
Ieri h: 17:50 molto_nuvoloso Molto Nuvoloso 14 13 93 1017 10 SO 22.2
Ieri h: 17:20 molto_nuvoloso Molto Nuvoloso 14 14 100 1017 10 SO 20.3
Ieri h: 16:50 molto_nuvoloso Molto Nuvoloso 14 14 100 1017 10 SO 25.9
Ieri h: 16:20 coperto_pioggia Pioggia Debole 14 14 100 1016 5 SO 22.2
Ieri h: 15:50 molto_nuvoloso Molto Nuvoloso 15 14 93 1016 10 SO 27.8
Ieri h: 15:20 molto_nuvoloso Molto Nuvoloso 15 14 93 1016 10 S/SO 25.9
Ieri h: 14:50 molto_nuvoloso Rovescio nelle Vicinanze 15 14 93 1016 5 SO 25.9
Ieri h: 14:20 nuvoloso Rovescio nelle Vicinanze 16 14 87 1015 6 SO 31.5
Ieri h: 13:50 nuvoloso Nuvoloso 16 14 87 1015 10 SO 35.2
Ieri h: 13:20 molto_nuvoloso Molto Nuvoloso 16 14 87 1015 10 SO 31.5
Ieri h: 12:50 molto_nuvoloso Molto Nuvoloso 16 14 87 1015 10 SO 29.6
Ieri h: 12:20 molto_nuvoloso Molto Nuvoloso 15 14 93 1015 10 SO 33.3
Ieri h: 11:50 molto_nuvoloso Molto Nuvoloso 15 13 87 1014 10 SO 31.5
Ieri h: 11:20 molto_nuvoloso Molto Nuvoloso 15 13 87 1014 10 SO 37
Ieri h: 10:50 molto_nuvoloso Molto Nuvoloso 15 13 87 1014 10 SO 31.5
Ieri h: 10:20 coperto_pioggia Pioviggine Leggera 14 13 93 1014 10 SO 33.3
Ieri h: 09:50 molto_nuvoloso Molto Nuvoloso 14 13 93 1013 10 SO 35.2
Ieri h: 09:20 molto_nuvoloso Molto Nuvoloso 14 13 93 1013 10 SO 31.5
Ieri h: 08:50 molto_nuvoloso Molto Nuvoloso 14 12 87 1013 9 SO 29.6
Ieri h: 08:20 molto_nuvoloso Molto Nuvoloso 14 12 87 1013 9 SO 29.6
Ieri h: 07:50 molto_nuvoloso Molto Nuvoloso 14 12 87 1012 8 SO 31.5
Ieri h: 07:20 molto_nuvoloso Molto Nuvoloso 14 12 87 1012 8 SO 29.6